This demonstration page uses our WeatherBlox Daily Observations layout. Learn more.

Left ArrowRight Arrow

Hourly Observations for October 7, 2021

Temp ( °F °C ) Dew Point ( °F °C ) Humidity (%) Winds ( mph kmh ) Pressure ( in mb ) Visibility ( mi km ) Precip ( " mm )
12:56 am 00:56 Clear 54 12.2 51 10.6 90 90 SE 7 11 30.04 1017 10 16 N/A
1:56 am 01:56 Clear 53 11.7 51 10.6 93 93 SSE 7 11 30.04 1017 10 16 N/A
2:56 am 02:56 Clear 52 11.1 50 10 93 93 SE 6 9 30.04 1017 10 16 N/A
3:56 am 03:56 Clear 51 10.6 50 10 96 96 ESE 7 11 30.04 1017 10 16 N/A
4:56 am 04:56 Clear 51 10.6 50 10 96 96 ESE 6 9 30.03 1017 10 16 N/A
5:56 am 05:56 Clear with Mist and Fog 50 10 49 9.4 96 96 ESE 6 9 30.04 1017 6 10 N/A
6:56 am 06:56 Clear with Mist and Fog 48 8.9 47 8.3 96 96 ESE 3 6 30.05 1018 5 8 N/A
7:33 am 07:33 Clear with Mist and Fog 48 9 48 9 100 100 ESE 5 7 30.07 1018 2 3 N/A
7:47 am 07:47 Sunny with Mist and Fog 48 9 48 9 100 100 ESE 6 9 30.07 1018 2 3 N/A
7:52 am 07:52 Sunny with Mist and Fog 48 9 48 9 100 100 ESE 5 7 30.07 1018 3 5 N/A
7:56 am 07:56 Sunny with Mist and Fog 50 10 49 9.4 96 96 SE 6 9 30.05 1018 3 5 N/A
8:56 am 08:56 Sunny 54 12.2 54 12.2 100 100 ESE 5 7 30.06 1018 7 11 N/A
9:56 am 09:56 Sunny 62 16.7 57 13.9 84 84 SSE 13 20 30.04 1017 10 16 N/A
10:56 am 10:56 Sunny 68 20 57 13.9 68 68 SSE 16 26 30.03 1017 10 16 N/A
11:56 am 11:56 Sunny 73 22.8 56 13.3 55 55 SSE 18 30 30.01 1016 10 16 N/A
12:56 pm 12:56 Sunny 76 24.4 54 12.2 47 47 SE 18 30 29.98 1015 10 16 N/A
1:56 pm 13:56 Sunny 79 26.1 53 11.7 41 41 S 15 24 29.95 1014 10 16 N/A
2:56 pm 14:56 Sunny 81 27.2 54 12.2 39 39 S 16 26 29.92 1013 10 16 N/A
3:56 pm 15:56 Sunny 81 27.2 54 12.2 39 39 SSE 16 26 29.91 1013 10 16 N/A
4:56 pm 16:56 Sunny 81 27.2 55 12.8 41 41 S 15 24 29.91 1013 10 16 N/A
5:56 pm 17:56 Sunny 78 25.6 54 12.2 43 43 S 14 22 29.91 1013 10 16 N/A
6:56 pm 18:56 Sunny 74 23.3 54 12.2 50 50 SSE 10 17 29.92 1013 10 16 N/A
7:56 pm 19:56 Clear 67 19.4 54 12.2 63 63 SE 7 11 29.93 1014 10 16 N/A
8:56 pm 20:56 Clear 65 18.3 54 12.2 68 68 ESE 6 9 29.94 1014 10 16 N/A
9:56 pm 21:56 Clear 63 17.2 53 11.7 70 70 SE 7 11 29.94 1014 10 16 N/A
10:56 pm 22:56 Clear 60 15.6 53 11.7 78 78 ESE 3 6 29.95 1014 10 16 N/A
11:56 pm 23:56 Clear 57 13.9 52 11.1 83 83 E 6 9 29.94 1014 10 16 N/A

Powered by AerisWeather